weather.gov     
National Weather Service

Terminal Aerodrome Forecast
NWS Homepage
This page is being discontinued on March 12, 2014.
The same data is available at this site. Please update your bookmarks.
Thank you, and we apologize for the inconvenience.
Please send an email to SR-SRH.Webmaster@noaa.gov with any concerns.


Current Version
Previous Version:    01  02  03  04  05  06  07  08  09  10  11  12  13  14  15  16  17  18  19  
[Printable]
017
FTUS43 KJKL 311700
TAFLOZ
TAF
KLOZ 311737Z 3118/0118 27006KT 6SM BR BKN009 BKN020
     FM312000 31008KT 5SM -RA BR OVC008
     FM010400 32009KT 2SM -RASN BR OVC005
     FM010600 33010KT 2SM -SN BR OVC005
     FM011400 33012KT 3SM -RASN BR OVC010=


U.S. Dept. of Commerce
NOAA National Weather Service
1325 East West Highway
Silver Spring, MD 20910
E-mail: w-nws.webmaster@noaa.gov
Page last modified: May 16, 2007
NATIONAL WEATHER SERVICE: for Safety, for Work, for Fun - FOR LIFE